| time (UTC) | temp C | wind direction | speed KPH | gust KPH | rain 1hr cm | rain 24hr cm | rain mn cm | humidity % | barometer mb |
| 20260906101021 | 11 | 157 | 6.4 | 9.7 | 0.00 | 0.00 | 0.00 | 69 | 1027.3 |
| 20260906100020 | 11 | 146 | 6.4 | 9.7 | 0.00 | 0.00 | 0.00 | 70 | 1027.3 |
| 20260906095021 | 11 | 152 | 8.0 | 12.9 | 0.00 | 0.00 | 0.00 | 68 | 1027.2 |
| 20260906094041 | 12 | 150 | 8.0 | 11.3 | 0.00 | 0.00 | 0.00 | 65 | 1027.2 |
| 20260906093021 | 13 | 141 | 8.0 | 11.3 | 0.00 | 0.00 | 0.00 | 61 | 1027.3 |
| 20260906092025 | 13 | 118 | 3.2 | 6.4 | 0.00 | 0.00 | 0.00 | 61 | 1027.2 |
| 20260906091025 | 14 | 206 | 1.6 | 3.2 | 0.00 | 0.00 | 0.00 | 57 | 1027.2 |
| 20260906090022 | 13 | 264 | 4.8 | 9.7 | 0.00 | 0.00 | 0.00 | 60 | 1027.1 |
| 20260906085021 | 15 | 155 | 11.3 | 14.5 | 0.00 | 0.00 | 0.00 | 56 | 1026.8 |
| 20260906084021 | 15 | 154 | 12.9 | 16.1 | 0.00 | 0.00 | 0.00 | 55 | 1026.8 |
| 20260906083022 | 15 | 153 | 11.3 | 14.5 | 0.00 | 0.00 | 0.00 | 56 | 1026.9 |
| 20260906082042 | 15 | 153 | 11.3 | 14.5 | 0.00 | 0.00 | 0.00 | 55 | 1026.9 |
| 20260906081056 | 15 | 153 | 12.9 | 16.1 | 0.00 | 0.00 | 0.00 | 54 | 1026.9 |
| 20260906075511 | -17 | 159 | 14.5 | 14.5 | 0.00 | 0.00 | 0.00 | ||
| 20260906073605 | -17 | 155 | 14.5 | 14.5 | 0.00 | 0.00 | 0.00 | ||
| 20260906072536 | -17 | 156 | 11.3 | 14.5 | 0.00 | 0.00 | 0.00 | ||
| 20260906071517 | 14 | 161 | 9.7 | 14.5 | 0.00 | 0.00 | 0.00 | 58 | 1026.9 |
| 20260906070538 | 14 | 165 | 9.7 | 12.9 | 0.00 | 0.00 | 0.00 | 57 | 1026.8 |
| 20260906065518 | 13 | 166 | 8.0 | 14.5 | 0.00 | 0.00 | 0.00 | 59 | 1026.9 |
| 20260906064518 | 13 | 141 | 6.4 | 9.7 | 0.00 | 0.00 | 0.00 | 60 | 1027.0 |
| 20260906063528 | 12 | 124 | 3.2 | 6.4 | 0.00 | 0.00 | 0.00 | 65 | 1027.0 |
| 20260906062518 | 13 | 145 | 6.4 | 8.0 | 0.00 | 0.00 | 0.00 | 63 | 1027.0 |
| 20260906061518 | 13 | 165 | 4.8 | 8.0 | 0.00 | 0.00 | 0.00 | 64 | 1027.0 |
| 20260906060529 | 14 | 179 | 3.2 | 4.8 | 0.00 | 0.00 | 0.00 | 60 | 1027.0 |
| 20260906055539 | 15 | 139 | 4.8 | 12.9 | 0.00 | 0.00 | 0.00 | 55 | 1026.8 |
| 20260906054519 | 14 | 148 | 8.0 | 14.5 | 0.00 | 0.00 | 0.00 | 59 | 1026.9 |
| 20260906053519 | 15 | 190 | 6.4 | 9.7 | 0.00 | 0.00 | 0.00 | 58 | 1027.0 |
| 20260906052520 | 15 | 190 | 6.4 | 9.7 | 0.00 | 0.00 | 0.00 | 59 | 1027.1 |
| 20260906051519 | 15 | 143 | 6.4 | 8.0 | 0.00 | 0.00 | 0.00 | 57 | 1027.2 |
| 20260906050526 | 15 | 150 | 6.4 | 11.3 | 0.00 | 0.00 | 0.00 | 58 | 1027.2 |
| 20260906045520 | 15 | 151 | 8.0 | 9.7 | 0.00 | 0.00 | 0.00 | 56 | 1027.2 |
| 20260906044541 | 15 | 142 | 6.4 | 9.7 | 0.00 | 0.00 | 0.00 | 59 | 1027.2 |
| 20260906043517 | 16 | 144 | 6.4 | 8.0 | 0.00 | 0.00 | 0.00 | 56 | 1027.3 |
| 20260906042517 | 16 | 135 | 4.8 | 6.4 | 0.00 | 0.00 | 0.00 | 54 | 1027.5 |
| 20260906041518 | 16 | 117 | 1.6 | 3.2 | 0.00 | 0.00 | 0.00 | 53 | 1027.4 |
| 20260906040538 | 16 | 130 | 3.2 | 4.8 | 0.00 | 0.00 | 0.00 | 53 | 1027.4 |
| 20260906035601 | 17 | 4 | 6.4 | 11.3 | 0.00 | 0.00 | 0.00 | 53 | 1027.4 |
| 20260906034521 | 17 | 155 | 8.0 | 9.7 | 0.00 | 0.00 | 0.00 | 51 | 1027.2 |
| 20260906033522 | 17 | 152 | 11.3 | 12.9 | 0.00 | 0.00 | 0.00 | 50 | 1027.0 |
| 20260906032522 | 17 | 159 | 8.0 | 12.9 | 0.00 | 0.00 | 0.00 | 51 | 1027.0 |
| 20260906031542 | 17 | 140 | 6.4 | 8.0 | 0.00 | 0.00 | 0.00 | 50 | 1027.0 |
| 20260906030519 | 18 | 141 | 6.4 | 8.0 | 0.00 | 0.00 | 0.00 | 49 | 1026.9 |
| 20260906025519 | 18 | 122 | 4.8 | 8.0 | 0.00 | 0.00 | 0.00 | 48 | 1026.8 |
| 20260906024600 | 18 | 135 | 4.8 | 8.0 | 0.00 | 0.00 | 0.00 | 48 | 1026.7 |
| 20260906023520 | 18 | 137 | 4.8 | 6.4 | 0.00 | 0.00 | 0.00 | 49 | 1026.4 |
| 20260906022600 | 19 | 144 | 4.8 | 6.4 | 0.00 | 0.00 | 0.00 | 48 | 1026.3 |
| 20260906021523 | 19 | 176 | 6.4 | 9.7 | 0.00 | 0.00 | 0.00 | 45 | 1026.2 |
| 20260906020537 | 20 | 178 | 6.4 | 9.7 | 0.00 | 0.00 | 0.00 | 44 | 1026.0 |
| 20260906015517 | 20 | 201 | 6.4 | 8.0 | 0.00 | 0.00 | 0.00 | 43 | 1026.0 |
| 20260906014518 | 21 | 208 | 8.0 | 11.3 | 0.00 | 0.00 | 0.00 | 42 | 1025.9 |
| 20260906013524 | 21 | 209 | 6.4 | 9.7 | 0.00 | 0.00 | 0.00 | 41 | 1025.9 |
| 20260906012544 | 22 | 185 | 6.4 | 8.0 | 0.00 | 0.05 | 0.00 | 40 | 1025.8 |
| 20260906011518 | 22 | 173 | 8.0 | 11.3 | 0.00 | 0.05 | 0.00 | 39 | 1025.6 |
| 20260906010518 | 22 | 179 | 11.3 | 16.1 | 0.00 | 0.08 | 0.00 | 38 | 1025.6 |
| 20260906005518 | 23 | 181 | 11.3 | 16.1 | 0.00 | 0.08 | 0.00 | 37 | 1025.5 |
| 20260906004519 | 23 | 177 | 9.7 | 16.1 | 0.00 | 0.08 | 0.00 | 36 | 1025.5 |
| 20260906003519 | 24 | 171 | 12.9 | 16.1 | 0.00 | 0.08 | 0.00 | 35 | 1025.5 |
| 20260906002519 | 23 | 180 | 14.5 | 22.5 | 0.00 | 0.08 | 0.00 | 35 | 1025.4 |
| 20260906001519 | 24 | 179 | 14.5 | 19.3 | 0.00 | 0.08 | 0.00 | 35 | 1025.2 |
| 20260906000520 | 25 | 173 | 20.9 | 29.0 | 0.00 | 0.08 | 0.00 | 33 | 1025.1 |
| 20260905235520 | 25 | 168 | 17.7 | 27.4 | 0.00 | 0.08 | 0.00 | 32 | 1025.1 |
| 20260905234520 | 25 | 176 | 20.9 | 29.0 | 0.00 | 0.08 | 0.00 | 32 | 1025.0 |
| 20260905233520 | 26 | 186 | 17.7 | 29.0 | 0.00 | 0.08 | 0.00 | 30 | 1025.1 |
| 20260905232520 | 26 | 167 | 11.3 | 20.9 | 0.00 | 0.08 | 0.00 | 28 | 1025.0 |
| 20260905231517 | 26 | 191 | 11.3 | 22.5 | 0.00 | 0.08 | 0.00 | 30 | 1025.0 |
| 20260905230517 | 26 | 106 | 12.9 | 27.4 | 0.00 | 0.08 | 0.00 | 30 | 1025.1 |
| 20260905225520 | 26 | 55 | 16.1 | 25.7 | 0.00 | 0.08 | 0.00 | 32 | 1025.1 |
| 20260905224518 | 25 | 57 | 17.7 | 25.7 | 0.00 | 0.08 | 0.00 | 32 | 1025.2 |
| 20260905223518 | 25 | 47 | 25.7 | 33.8 | 0.00 | 0.08 | 0.00 | 33 | 1025.1 |
| 20260905222538 | 25 | 46 | 19.3 | 27.4 | 0.00 | 0.08 | 0.00 | 34 | 1025.1 |
| 20260905221518 | 26 | 151 | 8.0 | 16.1 | 0.00 | 0.08 | 0.00 | 22 | 1025.2 |
| 20260905220519 | 26 | 164 | 11.3 | 16.1 | 0.00 | 0.08 | 0.00 | 24 | 1025.2 |
| 20260905215519 | 26 | 173 | 12.9 | 17.7 | 0.00 | 0.08 | 0.00 | 24 | 1025.3 |
| 20260905214519 | 26 | 222 | 9.7 | 17.7 | 0.00 | 0.08 | 0.00 | 24 | 1025.4 |
| 20260905213522 | 27 | 155 | 6.4 | 12.9 | 0.00 | 0.08 | 0.00 | 26 | 1025.5 |
| 20260905212522 | 27 | 182 | 8.0 | 16.1 | 0.00 | 0.08 | 0.00 | 25 | 1025.6 |
| 20260905211519 | 26 | 189 | 12.9 | 20.9 | 0.00 | 0.08 | 0.00 | 27 | 1025.7 |
| 20260905210520 | 26 | 171 | 11.3 | 24.1 | 0.00 | 0.08 | 0.00 | 28 | 1025.7 |
| 20260905205520 | 27 | 199 | 12.9 | 25.7 | 0.00 | 0.08 | 0.00 | 27 | 1025.8 |
| 20260905204520 | 27 | 167 | 9.7 | 20.9 | 0.00 | 0.08 | 0.00 | 26 | 1025.8 |
| 20260905203518 | 26 | 171 | 12.9 | 22.5 | 0.00 | 0.08 | 0.00 | 28 | 1025.9 |
| 20260905202518 | 27 | 131 | 9.7 | 20.9 | 0.00 | 0.08 | 0.00 | 27 | 1026.1 |
| 20260905201521 | 26 | 172 | 12.9 | 22.5 | 0.00 | 0.08 | 0.00 | 28 | 1026.2 |
| 20260905200518 | 26 | 138 | 8.0 | 19.3 | 0.00 | 0.08 | 0.00 | 29 | 1026.3 |
| 20260905195538 | 27 | 184 | 16.1 | 24.1 | 0.00 | 0.08 | 0.00 | 28 | 1026.3 |
| 20260905194518 | 27 | 278 | 8.0 | 17.7 | 0.00 | 0.08 | 0.00 | 27 | 1026.5 |
| 20260905193518 | 26 | 124 | 6.4 | 12.9 | 0.00 | 0.08 | 0.00 | 29 | 1026.6 |
| 20260905192519 | 26 | 166 | 14.5 | 24.1 | 0.00 | 0.08 | 0.00 | 29 | 1026.7 |
| 20260905191518 | 26 | 150 | 4.8 | 11.3 | 0.00 | 0.08 | 0.00 | 30 | 1026.8 |
| 20260905190519 | 25 | 203 | 12.9 | 22.5 | 0.00 | 0.08 | 0.00 | 31 | 1026.9 |
| 20260905185519 | 26 | 183 | 11.3 | 19.3 | 0.00 | 0.08 | 0.00 | 31 | 1027.0 |
| 20260905184519 | 25 | 280 | 4.8 | 9.7 | 0.00 | 0.08 | 0.00 | 31 | 1027.1 |
| 20260905183600 | 25 | 293 | 6.4 | 14.5 | 0.00 | 0.08 | 0.00 | 31 | 1027.3 |
| 20260905182520 | 25 | 302 | 8.0 | 12.9 | 0.00 | 0.08 | 0.00 | 31 | 1027.4 |
| 20260905181520 | 25 | 177 | 6.4 | 14.5 | 0.00 | 0.08 | 0.00 | 32 | 1027.5 |
| 20260905180520 | 25 | 209 | 9.7 | 19.3 | 0.00 | 0.08 | 0.00 | 32 | 1027.6 |
| 20260905175520 | 24 | 205 | 4.8 | 12.9 | 0.00 | 0.08 | 0.00 | 32 | 1027.7 |
| 20260905174521 | 24 | 202 | 8.0 | 14.5 | 0.00 | 0.08 | 0.00 | 32 | 1027.7 |
| 20260905173521 | 24 | 188 | 6.4 | 9.7 | 0.00 | 0.08 | 0.00 | 32 | 1027.8 |
| 20260905172521 | 23 | 44 | 3.2 | 14.5 | 0.00 | 0.08 | 0.00 | 32 | 1027.9 |
| 20260905171523 | 23 | 32 | 6.4 | 11.3 | 0.00 | 0.08 | 0.00 | 33 | 1027.9 |
| 20260905170530 | 23 | 270 | 3.2 | 8.0 | 0.00 | 0.08 | 0.00 | 34 | 1028.0 |
| 20260905165551 | 23 | 58 | 3.2 | 6.4 | 0.00 | 0.08 | 0.00 | 33 | 1027.9 |
| 20260905164521 | 23 | 53 | 3.2 | 8.0 | 0.00 | 0.08 | 0.00 | 35 | 1028.0 |
| 20260905163551 | 22 | 317 | 3.2 | 6.4 | 0.00 | 0.08 | 0.00 | 36 | 1028.1 |
| 20260905162542 | 22 | 45 | 3.2 | 8.0 | 0.00 | 0.08 | 0.00 | 39 | 1028.1 |
| 20260905161522 | 22 | 198 | 3.2 | 11.3 | 0.00 | 0.08 | 0.00 | 40 | 1028.1 |
| 20260905160531 | 21 | 251 | 1.6 | 3.2 | 0.00 | 0.08 | 0.00 | 41 | 1028.2 |
| 20260905155531 | 20 | 118 | 3.2 | 6.4 | 0.00 | 0.08 | 0.00 | 44 | 1028.2 |
| 20260905154517 | 20 | 352 | 1.6 | 4.8 | 0.00 | 0.08 | 0.00 | 46 | 1028.1 |
| 20260905153531 | 18 | 15 | 1.6 | 3.2 | 0.00 | 0.08 | 0.00 | 49 | 1028.1 |
| 20260905152532 | 17 | 54 | 1.6 | 4.8 | 0.00 | 0.08 | 0.00 | 53 | 1028.3 |
| 20260905151552 | 17 | 46 | 1.6 | 4.8 | 0.00 | 0.08 | 0.00 | 53 | 1028.3 |
| 20260905150532 | 17 | 344 | 4.8 | 6.4 | 0.00 | 0.08 | 0.00 | 54 | 1028.3 |
| 20260905145532 | 16 | 338 | 3.2 | 4.8 | 0.00 | 0.08 | 0.00 | 57 | 1028.5 |
| 20260905144518 | 16 | 301 | 1.6 | 3.2 | 0.00 | 0.08 | 0.00 | 60 | 1028.5 |
| 20260905143518 | 16 | 262 | 3.2 | 4.8 | 0.00 | 0.08 | 0.00 | 59 | 1028.4 |
| 20260905142518 | 15 | 241 | 4.8 | 8.0 | 0.00 | 0.08 | 0.00 | 61 | 1028.3 |
| 20260905141518 | 15 | 237 | 3.2 | 6.4 | 0.00 | 0.08 | 0.00 | 62 | 1028.3 |
| 20260905140518 | 15 | 245 | 3.2 | 4.8 | 0.00 | 0.08 | 0.00 | 61 | 1028.2 |
| 20260905135519 | 15 | 228 | 3.2 | 6.4 | 0.00 | 0.08 | 0.00 | 63 | 1028.1 |
| 20260905134519 | 14 | 174 | 3.2 | 4.8 | 0.00 | 0.08 | 0.00 | 65 | 1028.0 |
| 20260905133519 | 14 | 156 | 3.2 | 4.8 | 0.00 | 0.08 | 0.00 | 69 | 1028.0 |
| 20260905132519 | 14 | 137 | 1.6 | 3.2 | 0.00 | 0.08 | 0.00 | 66 | 1027.9 |
| 20260905131520 | 14 | 237 | 4.8 | 6.4 | 0.00 | 0.08 | 0.00 | 68 | 1027.8 |
| 20260905130520 | 14 | 179 | 8.0 | 9.7 | 0.00 | 0.08 | 0.00 | 66 | 1027.6 |
| 20260905125520 | 14 | 191 | 4.8 | 6.4 | 0.00 | 0.08 | 0.00 | 67 | 1027.5 |
| 20260905124519 | 15 | 236 | 3.2 | 6.4 | 0.00 | 0.08 | 0.00 | 66 | 1027.4 |
| 20260905123521 | 15 | 184 | 6.4 | 9.7 | 0.00 | 0.08 | 0.00 | 60 | 1027.1 |
| 20260905122520 | 15 | 149 | 8.0 | 11.3 | 0.00 | 0.08 | 0.00 | 60 | 1027.0 |
| 20260905121521 | 15 | 153 | 9.7 | 11.3 | 0.00 | 0.08 | 0.00 | 60 | 1027.0 |
| 20260905120521 | 15 | 153 | 9.7 | 11.3 | 0.00 | 0.08 | 0.00 | 59 | 1027.0 |
| 20260905115521 | 15 | 149 | 9.7 | 11.3 | 0.00 | 0.08 | 0.00 | 59 | 1027.0 |
| 20260905114521 | 15 | 149 | 8.0 | 11.3 | 0.00 | 0.08 | 0.00 | 61 | 1027.1 |
| 20260905113541 | 15 | 148 | 8.0 | 11.3 | 0.00 | 0.08 | 0.00 | 61 | 1027.1 |
| 20260905112522 | 15 | 158 | 9.7 | 12.9 | 0.00 | 0.08 | 0.00 | 62 | 1027.2 |
| 20260905111542 | 15 | 152 | 11.3 | 14.5 | 0.00 | 0.08 | 0.00 | 61 | 1027.0 |
| 20260905110522 | 14 | 151 | 9.7 | 14.5 | 0.00 | 0.08 | 0.00 | 62 | 1027.0 |
| 20260905105522 | 14 | 154 | 9.7 | 12.9 | 0.00 | 0.08 | 0.00 | 63 | 1027.0 |
| 20260905104542 | 14 | 154 | 9.7 | 11.3 | 0.00 | 0.08 | 0.00 | 62 | 1027.0 |
| 20260905103523 | 14 | 159 | 9.7 | 12.9 | 0.00 | 0.08 | 0.00 | 63 | 1026.9 |
| 20260905102517 | 14 | 159 | 9.7 | 12.9 | 0.00 | 0.08 | 0.00 | 62 | 1026.9 |
| 20260905101517 | 15 | 130 | 6.4 | 8.0 | 0.00 | 0.08 | 0.00 | 63 | 1026.9 |